Simultaneous Nadir Overpasses (SNOs) Predictions

Prediction of SNOs between GOES-16 and METOP-A Satellite Orbit:

Table of predicted SNOs for the next 14.0 days since TLE Epoch: 8/28/2021
Index Date Time (GOES-16) GOES-16 Lat,Lon METOP-A Lat,Lon Distance(km) Time Diff (sec)
1 08/30/2021 12:58:24 -0.01, -75.23 -0.04, -75.05 20.53 80
2 09/02/2021 00:56:43 0.00, -75.23 0.14, -74.71 59.15 80
3 09/03/2021 13:18:14 0.02, -75.27 0.89, -79.31 460.22 80
4 09/04/2021 12:54:53 0.00, -75.28 -0.20, -74.33 107.77 80
5 09/06/2021 01:16:33 -0.02, -75.27 -0.84, -78.96 420.48 80
6 09/07/2021 00:53:13 -0.00, -75.29 0.31, -74.00 147.87 80
7 09/08/2021 13:14:43 0.02, -75.34 0.72, -78.59 370.40 80
8 09/09/2021 12:51:23 0.00, -75.35 -0.37, -73.61 198.29 80
9 09/11/2021 01:13:02 -0.02, -75.36 -0.66, -78.25 328.89 80
